Starlink 32852

operational
NORAD ID: 62824 Int'l Des: 2025-018 Owner: SPXS Country: US Constellation: starlink
LEOCIRCULAR

关于 Starlink 32852

正在加载描述...

实时位置

正在加载3D地球...

即将过境

高度历史

Altitude vs Time

uPlot chart will show altitude changes over time

两行轨道根数

1 62824U 25018U 25350.39037781 .00010265 00000-0 35820-3 0 9996
2 62824 53.1600 336.6030 0001224 86.5255 273.5886 15.30203731 50425
Epoch: Dec 16, 2025 • Age: 27 hours

当前状态

高度 475.1 km
速度 7.63 km/s
星下点 11.84°N, 72.82°E
发射日期 Jan 24, 2025
运行时间 0.8 years
类型 internet

技术详情

分类 Payload
质量 730.00 kg
干质量 700.00 kg
总质量 730.00 kg
长度 0.30 m
直径 4.10 m
跨度 29.00 m
形状 Box + pan
制造商 SPXS
平台类型 Starlink V2M
阶段状态 In Orbit
所有者/国家 SPXS/US

大型星座

Loading constellations...